Location: ??????
(41.3794°N, 22.5014°E)
Time: 08:16:31
(UTC+00:00)

Okean-O - Pass Details

Date: 30 November 2020
Orbit: 639 x 640 km, 98.2° (Epoch: 17 January)

Event Time Altitude Azimuth Distance (km) Brightness Sun altitude
Rises 15:56:42 0° 125° (SE) 2,935 5.7 -10.3°
Reaches altitude 10° 15:59:29 10° 107° (ESE) 2,031 4.7 -10.7°
Maximum altitude 16:02:26 18° 64° (ENE) 1,576 4.0 -11.3°
Drops below altitude 10° 16:05:25 10° 22° (NNE) 2,040 4.8 -11.8°
Sets 16:08:12 0° 4° (N) 2,955 5.8 -12.3°
